Aérodrome :
LOGIN :

S'inscrire | Disclaimer

   EN    FR    IT 

 










Légende :    VFR   VFR Marginal   IFR   IFR Intensif   IFR Très Intensif
Visi : 
Plafond : 
>= 8 km
>= 3000ft
5 à 8 km
1000 à 3000 ft
1500m à 5 km
500 à 1000 ft
800 à 1500m
200 à 500 ft
< 800m
< 200 ft
Symboles :   Orages  Brouillard  Fortes neiges  Fortes précipitations  Vent > 20 kt
SIGMETs :   Divers  Orages  Givrage  Turbulence  Onde Orograph.  Cendres Volcan.







- Altitude de l'aérodrome : 768 ft
- Code IATA : MXP


LIMC - Milano Malpensa

DERNIER METAR :
  • 280020Z VRB01KT CAVOK 19/14 Q1011 NOSIG

METARs EXPIRÉS :
  • 272350Z VRB01KT CAVOK 19/13 Q1011 NOSIG
  • 272320Z 27004KT 230V330 CAVOK 21/14 Q1011 NOSIG
  • 272250Z VRB01KT CAVOK 20/13 Q1011 NOSIG
  • 272220Z VRB02KT CAVOK 22/13 Q1011 NOSIG
  • 272150Z 24004KT 210V270 CAVOK 23/14 Q1011 NOSIG

TAF TAF LIMC
Valide du 28 à 00h jusqu'au 29 à 06h UTC


272300Z 2800/2906 VRB05KT CAVOK
Pas de NOTAMs connus pour ce terrain.



MET'MAP, la Météo Aéronautique d'un coup d'oeil ! - Copyright ORBIFLY Décembre 2007 - Disclaimer

ORBIFLY MET'MAP TEAM :

Programmation & Développement : Alexandra Zaïnal
Conception & Développement : Baudouin d'Aumeries
Co-Programmation & Développement : Marc-Olivier Méhu
Soutien technique & logistique : Manuel Goepfert

Contact : metmap@orbifly.com




SOURCES & CREDITS :

   NOAA